Location: Ida Center
(41.8662°N, 83.5713°W)
Time: 02:25:40
(UTC+00:00)

Cosmos 1805 Rocket - Pass Details

Date: 17 November 2019
Orbit: 606 x 629 km, 82.5° (Epoch: 13 December)

Event Time Altitude Azimuth Distance (km) Brightness Sun altitude
Rises 22:43:28 0° 356° (N) 2,880 6.8 -6.2°
Reaches altitude 10° 22:45:44 10° 1° (N) 1,974 5.9 -6.6°
Maximum altitude 22:50:02 56° 80° (E) 734 3.6 -7.4°
Drops below altitude 10° 22:54:19 10° 159° (SSE) 1,971 6.1 -8.1°
Sets 22:56:34 0° 163° (SSE) 2,876 7.0 -8.5°
